Location: Ballingbuur
(53.0000°N, 5.7667°E)
Time: 06:51:13
(UTC+00:00)

Cosmos 1862 - Pass Details

Date: 29 November 2020
Orbit: 537 x 556 km, 82.5° (Epoch: 23 January)

Event Time Altitude Azimuth Distance (km) Brightness Sun altitude
Rises 05:23:25 0° 188° (S) 2,727 6.9 -17.3°
Reaches altitude 10° 05:25:34 10° 188° (S) 1,839 6.0 -17.0°
Maximum altitude 05:29:38 87° 102° (ESE) 566 3.3 -16.4°
Drops below altitude 10° 05:33:43 10° 12° (NNE) 1,854 6.0 -15.8°
Sets 05:35:54 0° 12° (NNE) 2,753 6.9 -15.5°
